This demonstration page uses our WeatherBlox Daily Observations layout. Learn more.

Left ArrowRight Arrow

Hourly Observations for August 22, 2018

Temp ( °F °C ) Dew Point ( °F °C ) Humidity (%) Winds ( mph kmh ) Pressure ( in mb ) Visibility ( mi km ) Precip ( " mm )
12:52 am 00:52 Clear 68 20 62 16.7 81 81 NW 3 6 30.13 1020 10 16 0.00 0.00
1:52 am 01:52 Mostly Cloudy 67 19.4 62 16.7 84 84 NW 3 6 30.14 1021 10 16 0.00 0.00
2:52 am 02:52 Partly Cloudy 67 19.4 62 16.7 84 84 Calm 30.14 1021 9 14 0.00 0.00
3:52 am 03:52 Clear 65 18.3 61 16.1 87 87 Calm 30.15 1021 9 14 0.00 0.00
4:52 am 04:52 Clear 66 18.9 62 16.7 87 87 NW 3 6 30.16 1021 8 13 0.00 0.00
5:52 am 05:52 Clear with Mist and Fog 63 17.2 61 16.1 93 93 NW 3 6 30.17 1022 6 10 0.00 0.00
6:52 am 06:52 Sunny with Mist and Fog 63 17.2 61 16.1 93 93 N 3 6 30.18 1022 5 8 0.00 0.00
7:52 am 07:52 Sunny with Mist and Fog 66 18.9 63 17.2 90 90 NW 3 6 30.21 1023 5 8 0.00 0.00
8:52 am 08:52 Partly Cloudy with Mist and Fog 68 20 64 17.8 87 87 N 5 7 30.22 1023 6 10 0.00 0.00
9:52 am 09:52 Sunny 72 22.2 65 18.3 79 79 NNE 6 9 30.21 1023 8 13 0.00 0.00
10:52 am 10:52 Mostly Sunny 76 24.4 65 18.3 69 69 VRB 6 9 30.21 1023 9 14 0.00 0.00
11:13 am 11:13 Mostly Cloudy 74 23.3 64 17.8 71 71 NNE 8 13 30.21 1023 8 13 0.00 0.00
11:40 am 11:40 Partly Cloudy 75 23.9 64 17.8 69 69 N 8 13 30.21 1023 9 14 0.00 0.00
11:52 am 11:52 Partly Cloudy 74 23.3 63 17.2 69 69 NE 8 13 30.21 1023 8 13 0.00 0.00
12:52 pm 12:52 Mostly Cloudy 75 23.9 63 17.2 66 66 N 10 17 30.21 1023 9 14 0.00 0.00
1:52 pm 13:52 Sunny 74 23.3 63 17.2 69 69 NNE 8 13 30.20 1023 9 14 0.00 0.00
2:52 pm 14:52 Mostly Sunny 76 24.4 62 16.7 62 62 N 8 13 30.20 1023 9 14 0.00 0.00
3:52 pm 15:52 Sunny 77 25 60 15.6 56 56 N 8 13 30.19 1022 10 16 0.00 0.00
4:52 pm 16:52 Cloudy 76 24.4 59 15 56 56 WNW 6 9 30.18 1022 10 16 0.00 0.00
5:52 pm 17:52 Sunny 75 23.9 58 14.4 55 55 N 5 7 30.16 1021 10 16 0.00 0.00
6:52 pm 18:52 Sunny 74 23.3 61 16.1 64 64 N 6 9 30.16 1021 10 16 0.00 0.00
7:52 pm 19:52 Sunny 72 22.2 59 15 64 64 NE 7 11 30.14 1021 9 14 0.00 0.00
8:52 pm 20:52 Clear 70 21.1 57 13.9 64 64 ENE 5 7 30.15 1021 10 16 0.00 0.00
9:52 pm 21:52 Clear 67 19.4 57 13.9 71 71 ESE 6 9 30.14 1021 9 14 0.00 0.00
10:52 pm 22:52 Clear 66 18.9 56 13.3 70 70 ESE 5 7 30.14 1021 10 16 0.00 0.00
11:52 pm 23:52 Clear 64 17.8 56 13.3 75 75 Calm 30.15 1021 10 16 0.00 0.00

Powered by AerisWeather